World > North America > United States > Texas

Walton, Texas Regional Weather

Lat: 32.16N, Lon: 95.89W
Wx Zone: TXZ135Web Search

If you are on your PC, you can easily pass this page to your phone by scanning the QR Code near the bottom with your camera.

Feedback


°F Click to change Walton hourly weather to Imperial units.Click to change Walton hourly weather to Metric units. °C
Walton Weather Map
UTC Time: 4/11/2021, 03:11
Your Time:

Walton, TX Regional Weather

Expires:202104110400;;361998
ASUS44 KFWD 110303
RWRTX 
NORTH TEXAS HOURLY WEATHER ROUNDUP
NATIONAL WEATHER SERVICE FORT WORTH TX
1000 PM CDT SAT APR 10 2021

NOTE: "FAIR" INDICATES FEW OR NO CLOUDS BELOW 12,000 FEET WITH NO
SIGNIFICANT WEATHER AND/OR OBSTRUCTIONS TO VISIBILITY.


TXZ095>097-106>112-122>126-135>138-148>153-164>167-110400-
EAST TEXAS
  
CITY           SKY/WX    TMP DP  RH WIND       PRES   REMARKS
PARIS          FAIR      55  44  66 CALM      29.81R                  
SULPHUR SPRNGS FAIR      56  44  64 CALM      29.84R                  
MOUNT PLEASANT FAIR      54  48  78 CALM      29.81R                  
GILMER         FAIR      53  47  79 CALM      29.81R                  
MINEOLA        FAIR      50  45  81 CALM      29.82R                  
TYLER          FAIR      58  41  53 CALM      29.81R                  
LONGVIEW       FAIR      57  43  59 CALM      29.80R                  
MARSHALL       FAIR      52  46  80 CALM      29.83R                  
ATHENS         FAIR      54  43  66 CALM      29.81R                  
PALESTINE      MOCLDY    55  46  71 CALM      29.82R                  
JACKSONVILLE   FAIR      60  40  47 CALM      29.83R                  
HENDERSON      FAIR      56  44  64 CALM      29.82R                  
CENTER         FAIR      55  46  71 CALM      29.82R                  
NACOGDOCHES    FAIR      54  49  83 CALM      29.82R                  
LUFKIN         FAIR      57  49  74 CALM      29.80R                  
$$

SUPPLEMENTAL OBSERVATIONS (NWS FORT WORTH AREA)
  
CITY           SKY/WX    TMP DP  RH WIND       PRES   REMARKS
$$

SUPPLEMENTAL OBSERVATIONS (NWS NORMAN AREA)
  
CITY           SKY/WX    TMP DP  RH WIND       PRES   REMARKS
GOODLETT         N/A     58  29  33 SE9       29.79S                  
ODELL            N/A     55  31  40 SE8       29.81S                  
CROWELL          N/A     55  33  42 SE8       29.82S                  
KNOX CITY        N/A     54  32  42 SE10      29.82S                  
SEYMOUR          N/A     51  36  55 SE6       29.82S                  
$$

SUPPLEMENTAL OBSERVATIONS (NWS SAN ANGELO AREA)
  
CITY           SKY/WX    TMP DP  RH WIND       PRES   REMARKS
WEINERT          N/A     56  29  35 SE8       29.84S                  
HASKELL          N/A     62  32  32 SE7       29.83S                  
THROCKMORTON     N/A     56  32  40 SE6       29.84S                  
STAMFORD         N/A     55  28  34 SE7       29.85S                  
CLYDE            N/A     60  31  33 E8        29.87R                  
$$

SUPPLEMENTAL OBSERVATIONS (NWS SHREVEPORT AREA)
  
CITY           SKY/WX    TMP DP  RH WIND       PRES   REMARKS
$$

SUPPLEMENTAL OBSERVATIONS ARE A COLLECTION OF AUTOMATED INSTRUMENTS
THAT ARE MAINTAINED BY A VARIETY OF FEDERAL AND STATE AGENCIES. 
CERTAIN ELEMENTS...SUCH AS HUMIDITY VALUES AND SUSTAINED WIND 
SPEEDS...MAY BE APPROXIMATED.

  

SKY/WX - Weather  TMP - Temperature  DP - Dew Point  RH - Relative Humidity
WIND - Wind Direction/Speed PRES - Barometric Pressure VSB - Visibility
WCI - Wind Chill Index E13G22 Wind - East Wind 13 mph/Gusts of 22 mph